This demonstration page uses our WeatherBlox Daily Observations layout. Learn more.

39.29038, -76.61219

Hourly Observations for January 9, 2019

Temp ( °F °C ) Dew Point ( °F °C ) Humidity (%) Winds ( mph kmh ) Pressure ( in mb ) Visibility ( mi km ) Precip ( " mm )
12:54 am 00:54 undefined 52 11.1 36 2.2 55 55 undefined N/A 29.65 1004 N/A 0 0
1:54 am 01:54 undefined 48 8.9 32 0 54 54 undefined N/A 29.71 1006 N/A 0 0
2:54 am 02:54 undefined 47 8.3 30 -1.1 52 52 undefined N/A 29.74 1007 N/A 0 0
3:54 am 03:54 undefined 46 7.8 26 -3.3 46 46 undefined N/A 29.74 1007 N/A 0 0
4:54 am 04:54 undefined 46 7.8 27 -2.8 47 47 undefined N/A 29.74 1007 N/A 0 0
5:54 am 05:54 undefined 45 7.2 26 -3.3 48 48 undefined N/A 29.74 1007 N/A 0 0
6:54 am 06:54 undefined 45 7.2 27 -2.8 49 49 undefined N/A 29.77 1008 N/A 0 0
7:54 am 07:54 undefined 46 7.8 23 -5 40 40 undefined N/A 29.74 1007 N/A 0 0
8:54 am 08:54 undefined 46 7.8 23 -5 40 40 undefined N/A 29.77 1008 N/A 0 0
9:54 am 09:54 undefined 47 8.3 24 -4.4 41 41 undefined N/A 29.77 1008 N/A 0 0
10:54 am 10:54 undefined 47 8.3 24 -4.4 41 41 undefined N/A 29.77 1008 N/A 0 0
11:54 am 11:54 undefined 45 7.2 28 -2.2 52 52 undefined N/A 29.71 1006 N/A 0 0
12:54 pm 12:54 undefined 45 7.2 27 -2.8 49 49 undefined N/A 29.71 1006 N/A 0 0
1:54 pm 13:54 undefined 45 7.2 27 -2.8 49 49 undefined N/A 29.71 1006 N/A 0 0
2:54 pm 14:54 undefined 42 5.6 27 -2.8 55 55 undefined N/A 29.74 1007 N/A 0 0
3:54 pm 15:54 undefined 41 5 20 -6.7 43 43 undefined N/A 29.77 1008 N/A 0 0
4:54 pm 16:54 undefined 40 4.4 18 -7.8 41 41 undefined N/A 29.77 1008 N/A 0 0
5:54 pm 17:54 undefined 39 3.9 18 -7.8 43 43 undefined N/A 29.8 1009 N/A 0 0
6:54 pm 18:54 undefined 38 3.3 18 -7.8 44 44 undefined N/A 29.83 1010 N/A 0 0
7:54 pm 19:54 undefined 36 2.2 18 -7.8 48 48 undefined N/A 29.83 1010 N/A 0 0
8:54 pm 20:54 undefined 36 2.2 18 -7.8 48 48 undefined N/A 29.83 1010 N/A 0 0
9:54 pm 21:54 undefined 35 1.7 17 -8.3 48 48 undefined N/A 29.83 1010 N/A 0 0
10:54 pm 22:54 undefined 33 0.6 18 -7.8 54 54 undefined N/A 29.83 1010 N/A 0 0
11:54 pm 23:54 undefined 32 0 14 -10 47 47 undefined N/A 29.83 1010 N/A 0 0

Powered by AerisWeather